[[{"header":{"parameterUnit":"m.s-1","parameterCategory":1,"la1":30.2991,"la2":30.254,"lo1":-89.0895,"lo2":-89.0444,"dy":0.0017,"dx":0.0017,"nx":28,"ny":28,"refTime":"2023-09-30T09:00:00:Z","depth":0,"parameterNumber":2,"parameterNumberName":"U-component_of_WINDS"},"data":[0,0,0,0,0,0,0,0,0,0,0,0,0,0,0,0,0,0,0,0,0,0,0,0,0,0,0,0,0,0,0,0,0,0,0,0,0,0,0,0,0,0,0,0,0,0,0,0,0,0,0,0,0,0,0,0,0,0,-2.0187,-2.0188,0,-2.0247,-2.0248,-2.0249,-2.0189,-2.0186,-2.0184,-2.0182,-2.0245,-2.0249,-2.0253,0,0,0,0,0,0,0,0,0,0,0,0,0,-2.0023,-2.0027,-2.0187,-2.0188,-2.0189,-2.0247,-2.0248,-2.0249,-2.0189,-2.0186,-2.0183,-2.0181,-2.0244,-2.0249,-2.0253,0,0,0,0,0,0,0,0,0,0,0,0,0,-2.009,-2.0028,-2.0187,-2.0166,-2.0165,-2.0247,-2.0248,-2.0249,-2.019,-2.0186,-2.0183,-2.0179,-2.0242,-2.0248,-2.0254,-2.0361,0,0,-2.0272,-2.0274,0,0,0,0,0,0,0,0,-2.0086,-2.0096,-2.0168,-2.0168,-2.0166,-2.0207,-2.0213,-2.0287,-2.0191,-2.018,-2.0182,-2.0178,-2.0235,-2.0242,-2.0261,-2.0364,-2.0366,-2.0272,-2.0276,-2.0278,-2.028,0,0,0,0,0,0,0,-2.0082,-2.0093,-2.0211,-2.017,-2.0168,-2.0154,-2.016,-2.0227,-2.0227,-2.0181,-2.0177,-2.0184,-2.0234,-2.0255,-2.0262,-2.0367,-2.0272,-2.0277,-2.0281,-2.0283,-2.0562,-2.0566,0,0,0,0,0,0,-2.0079,-2.009,-2.0209,-2.0213,-2.0117,-2.016,-2.0166,-2.0197,-2.0226,-2.0227,-2.0187,-2.0181,-2.0247,-2.0255,-2.0264,-2.0392,-2.0278,-2.0284,-2.0287,-2.0558,-2.0563,-2.0567,0,0,0,0,0,0,-2.0076,-2.009,-2.0207,-2.015,-2.0164,-2.0166,-2.0202,-2.02,-2.0221,-2.0231,-2.0231,-2.0209,-2.0244,-2.0256,-2.0337,-2.0394,-2.0286,-2.0292,-2.0554,-2.056,-2.0565,-2.0649,0,0,0,0,0,0,-2.0071,-2.009,-2.013,-2.0152,-2.0167,-2.0279,-2.0205,-2.0204,-2.0231,-2.0224,-2.0251,-2.0252,-2.0243,-2.0329,-2.0343,-2.04,-2.0296,-2.0549,-2.0556,-2.0563,-2.0642,-2.0657,-2.0671,0,0,0,0,0,-2.0066,-2.0151,-2.0132,-2.0147,-2.0217,-2.0282,-2.0291,-2.0278,-2.0236,-2.0277,-2.0283,-2.0251,-2.0384,-2.0338,-2.0353,-2.0412,-2.0545,-2.0554,-2.0563,-2.0635,-2.0654,-2.067,0,0,0,0,0,0,-2.0137,-2.0154,-2.0133,-2.0228,-2.0254,-2.0272,-2.0323,-2.0298,-2.0338,-2.033,-2.0311,-2.0318,-2.0405,-2.0416,-2.0364,-2.0518,-2.0458,-2.047,-2.0508,-2.0526,-2.054,-2.0537,-2.0301,0,0,0,0,0,-2.0164,-2.0214,-2.0226,-2.0309,-2.0323,-2.0321,-2.0349,-2.0336,-2.0363,-2.0374,-2.0386,-2.0414,-2.0462,-2.0494,-2.0539,-2.0642,-2.0648,-2.069,-2.0705,-2.0717,-2.0729,-2.0786,-2.0805,-2.0596,-2.0596,-2.0596,0,0,-2.022,-2.0235,-2.0268,-2.0324,-2.0343,-2.0397,-2.0331,-2.039,-2.043,-2.0383,-2.0461,-2.0471,-2.0501,-2.0594,-2.0636,-2.0606,-2.0787,-2.0728,-2.0737,-2.0743,-2.0797,-2.0816,-2.0834,-2.0602,-2.0601,-2.06,0,0,-2.035,-2.0366,-2.0437,-2.0457,-2.0486,-2.0484,-2.0501,-2.0523,-2.0527,-2.0605,-2.0571,-2.0618,-2.0701,-2.0724,-2.0747,-2.0885,-2.0858,-2.09,-2.0978,-2.1033,-2.105,-2.1064,-2.1116,-2.1134,-2.0911,-2.0911,-2.0911,0,-2.0417,-2.0496,-2.0477,-2.0539,-2.0565,-2.0523,-2.0597,-2.0617,-2.0659,-2.0679,-2.0644,-2.0748,-2.0765,-2.0864,-2.0898,-2.0916,-2.0937,-2.0898,-2.1049,-2.1063,-2.1076,-2.1125,-2.1145,-2.0916,-2.0916,-2.0915,-2.0915,0,-2.0577,-2.0632,-2.0686,-2.0728,-2.0759,-2.0827,-2.0819,-2.0854,-2.0838,-2.084,-2.092,-2.0938,-2.0987,-2.1009,-2.0994,-2.1106,-2.1087,-2.1051,-2.0991,-2.1102,-2.1148,-2.1166,-2.0924,-2.0922,-2.092,-2.0919,0,0,-2.0756,-2.0786,-2.0806,-2.0825,-2.0853,-2.0896,-2.0961,-2.1008,-2.1039,-2.1069,-2.1125,-2.1195,-2.1162,-2.1188,-2.1175,-2.1224,-2.1334,-2.1182,-2.1182,-2.1212,-2.1461,-2.1491,-2.1512,-2.1315,-2.1318,-2.1321,-2.146,0,-2.0889,-2.1002,-2.0987,-2.1096,-2.1148,-2.1108,-2.1165,-2.119,-2.1193,-2.1237,-2.124,-2.1292,-2.1243,-2.1259,-2.1305,-2.1311,-2.1385,-2.13,-2.1369,-2.1372,-2.1366,-2.1536,-2.1567,-2.1697,-2.1477,-2.148,-2.1482,0,-2.106,-2.1096,-2.121,-2.1231,-2.1252,-2.1303,-2.1345,-2.1388,-2.1414,-2.1413,-2.1442,-2.142,-2.1487,-2.1423,-2.1516,-2.1459,-2.1485,-2.1493,-2.1497,-2.1506,-2.1436,-2.1552,-2.1738,-2.1758,-2.151,-2.1508,-2.1506,0,-2.1182,-2.1259,-2.1337,-2.1354,-2.138,-2.1417,-2.143,-2.1453,-2.1482,-2.1518,-2.1537,-2.1581,-2.1606,-2.164,-2.1632,-2.1586,-2.1727,-2.1662,-2.173,-2.173,-2.1764,-2.1763,-2.196,-2.1776,-2.1776,-2.1776,-2.1775,0,-2.1334,-2.1406,-2.1393,-2.1442,-2.1522,-2.1503,-2.1583,-2.1591,-2.1611,-2.1662,-2.1629,-2.1677,-2.1661,-2.1708,-2.1702,-2.178,-2.1791,-2.1793,-2.1791,-2.1798,-2.1798,-2.1818,-2.181,-2.1781,-2.178,-2.1779,-2.1778,0,-2.1486,-2.148,-2.1563,-2.158,-2.1586,-2.1644,-2.1659,-2.1705,-2.1705,-2.1769,-2.1783,-2.1783,-2.1837,-2.1831,-2.1891,-2.1887,-2.1986,-2.1971,-2.1977,-2.1975,-2.2043,-2.2038,-2.2263,-2.2292,-2.2087,-2.2089,-2.209,0,-2.1585,-2.1639,-2.1662,-2.1692,-2.1708,-2.1758,-2.1787,-2.177,-2.1803,-2.1837,-2.188,-2.193,-2.197,-2.2059,-2.2065,-2.2111,-2.21,-2.2175,-2.2107,-2.2112,-2.2104,-2.2103,-2.2109,-2.219,-2.2192,-2.2194,-2.2195,0,-2.1762,-2.1756,-2.1799,-2.1841,-2.1877,-2.191,-2.1939,-2.1966,-2.1953,-2.1991,-2.2045,-2.2076,-2.2138,-2.2189,-2.2233,-2.2246,-2.222,-2.2216,-2.2235,-2.2244,-2.2246,-2.2249,-2.2017,-2.2212,-2.221,-2.2209,-2.2208,-2.2208,-2.1892,-2.1939,-2.1962,-2.2012,-2.2032,-2.206,-2.2105,-2.2109,-2.2154,-2.2203,-2.219,-2.2252,-2.2277,-2.2333,-2.2351,-2.24,-2.2373,-2.2399,-2.2407,-2.2414,-2.2424,-2.2236,-2.2408,-2.2407,-2.2407,-2.2407,-2.2406,0,-2.207,-2.2082,-2.2128,-2.217,-2.2209,-2.2177,-2.2208,-2.2244,-2.2299,-2.2324,-2.2364,-2.2427,-2.2477,-2.2486,-2.2534,-2.2572,-2.2561,-2.2585,-2.2584,-2.2588,-2.2444,-2.2424,-2.2593,-2.2593,-2.2593,-2.2593,-2.2593,-2.2593,-2.2167,-2.2246,-2.2242,-2.2331,-2.2343,-2.2403,-2.2424,-2.245,-2.247,-2.2542,-2.2583,-2.2588,-2.2608,-2.2656,-2.2701,-2.2702,-2.2723,-2.2753,-2.275,-2.2616,-2.2598,-2.258,-2.2562,-2.2757,-2.2757,-2.289,-2.2892,-2.2893]},{"header":{"parameterUnit":"m.s-1","parameterCategory":1,"la1":30.2991,"la2":30.254,"lo1":-89.0895,"lo2":-89.0444,"dy":0.0017,"dx":0.0017,"nx":28,"ny":28,"refTime":"2023-09-30T09:00:00:Z","depth":0,"parameterNumber":3,"parameterNumberName":"V-component_of_WINDS"},"data":[0,0,0,0,0,0,0,0,0,0,0,0,0,0,0,0,0,0,0,0,0,0,0,0,0,0,0,0,0,0,0,0,0,0,0,0,0,0,0,0,0,0,0,0,0,0,0,0,0,0,0,0,0,0,0,0,0,0,-3.2988,-3.2988,0,-3.2995,-3.2995,-3.2995,-3.2948,-3.2947,-3.2945,-3.2944,-3.295,-3.2951,-3.2953,0,0,0,0,0,0,0,0,0,0,0,0,0,-3.2932,-3.2933,-3.2988,-3.2988,-3.2988,-3.2995,-3.2995,-3.2995,-3.2948,-3.2946,-3.2945,-3.2943,-3.295,-3.2951,-3.2953,0,0,0,0,0,0,0,0,0,0,0,0,0,-3.2949,-3.2934,-3.2988,-3.2965,-3.2964,-3.2995,-3.2995,-3.2995,-3.2948,-3.2946,-3.2944,-3.2943,-3.2949,-3.2951,-3.2953,-3.3006,0,0,-3.296,-3.2961,0,0,0,0,0,0,0,0,-3.2949,-3.2952,-3.2969,-3.2967,-3.2965,-3.2968,-3.2977,-3.2999,-3.2949,-3.2954,-3.2944,-3.2942,-3.2958,-3.2959,-3.2965,-3.3006,-3.3007,-3.296,-3.2961,-3.2962,-3.2963,0,0,0,0,0,0,0,-3.2947,-3.2951,-3.2991,-3.2969,-3.2967,-3.2954,-3.2955,-3.2981,-3.2967,-3.2954,-3.295,-3.2952,-3.2956,-3.2963,-3.2964,-3.3007,-3.296,-3.2962,-3.2963,-3.2964,-3.3091,-3.3093,0,0,0,0,0,0,-3.2949,-3.295,-3.299,-3.2991,-3.2952,-3.2957,-3.2957,-3.2969,-3.2967,-3.2964,-3.2953,-3.2949,-3.296,-3.2962,-3.2965,-3.3025,-3.2962,-3.2964,-3.2965,-3.3088,-3.3091,-3.3093,0,0,0,0,0,0,-3.2948,-3.2953,-3.299,-3.297,-3.2973,-3.296,-3.2974,-3.2971,-3.2977,-3.2966,-3.2964,-3.2963,-3.2959,-3.2962,-3.2996,-3.3024,-3.2965,-3.2967,-3.3086,-3.3089,-3.3092,-3.3147,0,0,0,0,0,0,-3.2947,-3.2953,-3.2974,-3.297,-3.2975,-3.3022,-3.2976,-3.2972,-3.2981,-3.2976,-3.2974,-3.2972,-3.2957,-3.2993,-3.2998,-3.3026,-3.2968,-3.3083,-3.3087,-3.3091,-3.3142,-3.3152,-3.3159,0,0,0,0,0,-3.2945,-3.2989,-3.2975,-3.298,-3.3,-3.3024,-3.3026,-3.3008,-3.2983,-3.3003,-3.2996,-3.2972,-3.3021,-3.2997,-3.3002,-3.3031,-3.3081,-3.3086,-3.3091,-3.3139,-3.315,-3.3159,0,0,0,0,0,0,-3.2996,-3.2988,-3.2973,-3.3017,-3.3021,-3.3016,-3.304,-3.3021,-3.3032,-3.3027,-3.3004,-3.3004,-3.3042,-3.304,-3.3014,-3.3082,-3.3047,-3.3053,-3.3081,-3.3092,-3.31,-3.3099,-3.297,0,0,0,0,0,-3.3012,-3.3033,-3.3025,-3.3065,-3.3068,-3.3054,-3.3064,-3.3049,-3.3053,-3.3054,-3.305,-3.3054,-3.307,-3.3081,-3.3095,-3.3142,-3.3141,-3.3165,-3.3174,-3.3181,-3.3186,-3.3209,-3.3219,-3.3109,-3.3109,-3.3109,0,0,-3.3046,-3.3045,-3.3059,-3.3075,-3.3076,-3.3097,-3.3056,-3.308,-3.3095,-3.3058,-3.309,-3.3087,-3.309,-3.313,-3.3148,-3.313,-3.3216,-3.3187,-3.3192,-3.3193,-3.3215,-3.3225,-3.3235,-3.3112,-3.3111,-3.3111,0,0,-3.3118,-3.312,-3.3152,-3.3155,-3.3158,-3.3149,-3.3157,-3.3154,-3.315,-3.3182,-3.3154,-3.3172,-3.32,-3.3203,-3.3208,-3.3281,-3.3258,-3.3286,-3.333,-3.3353,-3.3361,-3.3369,-3.3393,-3.3403,-3.3291,-3.3292,-3.3292,0,-3.316,-3.3191,-3.3172,-3.3197,-3.3204,-3.3172,-3.3204,-3.3208,-3.3216,-3.3221,-3.3201,-3.3235,-3.3235,-3.3275,-3.3293,-3.3298,-3.3306,-3.3285,-3.3362,-3.3369,-3.3376,-3.3399,-3.3408,-3.3295,-3.3294,-3.3294,-3.3294,0,-3.3241,-3.3263,-3.3288,-3.3296,-3.3307,-3.3336,-3.332,-3.3333,-3.3318,-3.331,-3.3342,-3.3341,-3.3353,-3.3362,-3.3348,-3.34,-3.3388,-3.3366,-3.333,-3.339,-3.3411,-3.342,-3.3299,-3.3298,-3.3297,-3.3296,0,0,-3.3345,-3.3342,-3.3351,-3.3354,-3.3355,-3.3371,-3.3398,-3.341,-3.3421,-3.3427,-3.3448,-3.3473,-3.3452,-3.3457,-3.3443,-3.3464,-3.3519,-3.3438,-3.3438,-3.3452,-3.3575,-3.3591,-3.3602,-3.3505,-3.3507,-3.3508,-3.3574,0,-3.3414,-3.346,-3.3443,-3.349,-3.3509,-3.3478,-3.3502,-3.3504,-3.3498,-3.3513,-3.3505,-3.3523,-3.3494,-3.3497,-3.3516,-3.3509,-3.3544,-3.3504,-3.3524,-3.3525,-3.3522,-3.3613,-3.363,-3.3692,-3.3583,-3.3584,-3.3585,0,-3.3501,-3.351,-3.3559,-3.3555,-3.3562,-3.3584,-3.3593,-3.3608,-3.361,-3.3604,-3.361,-3.3592,-3.3617,-3.3582,-3.3616,-3.359,-3.3597,-3.3594,-3.3596,-3.3596,-3.3557,-3.3614,-3.3712,-3.3721,-3.3598,-3.3597,-3.3596,0,-3.3569,-3.3595,-3.3626,-3.363,-3.3627,-3.3642,-3.3642,-3.3642,-3.365,-3.3659,-3.3664,-3.3675,-3.3681,-3.369,-3.3674,-3.3651,-3.371,-3.3675,-3.3705,-3.3705,-3.3717,-3.3717,-3.3817,-3.3725,-3.3725,-3.3725,-3.3725,0,-3.3648,-3.3678,-3.3657,-3.3676,-3.3709,-3.369,-3.3723,-3.3719,-3.3719,-3.3737,-3.3712,-3.3729,-3.3708,-3.3723,-3.3711,-3.374,-3.3744,-3.3738,-3.3735,-3.374,-3.374,-3.3743,-3.3738,-3.3727,-3.3727,-3.3726,-3.3726,0,-3.3729,-3.3717,-3.3749,-3.3744,-3.3743,-3.3767,-3.3762,-3.378,-3.3771,-3.3794,-3.3798,-3.3785,-3.3801,-3.3787,-3.3803,-3.3795,-3.3833,-3.3824,-3.3832,-3.3829,-3.386,-3.3856,-3.3964,-3.3976,-3.3878,-3.3879,-3.388,0,-3.3779,-3.3802,-3.3799,-3.3809,-3.3809,-3.3826,-3.3834,-3.3816,-3.3825,-3.3829,-3.3846,-3.386,-3.387,-3.3897,-3.3888,-3.39,-3.389,-3.3927,-3.3891,-3.3896,-3.3889,-3.3887,-3.3888,-3.3934,-3.3935,-3.3936,-3.3936,0,-3.3868,-3.3861,-3.3874,-3.3884,-3.3894,-3.3902,-3.3907,-3.3917,-3.3898,-3.3909,-3.3925,-3.3933,-3.3949,-3.3963,-3.3972,-3.397,-3.395,-3.3948,-3.3955,-3.396,-3.3963,-3.396,-3.385,-3.3945,-3.3944,-3.3944,-3.3943,-3.3943,-3.3935,-3.3953,-3.3953,-3.3968,-3.397,-3.3975,-3.3991,-3.3984,-3.3997,-3.4008,-3.3997,-3.4016,-3.4017,-3.4027,-3.4028,-3.4042,-3.4027,-3.4038,-3.404,-3.4043,-3.4047,-3.3962,-3.4044,-3.4044,-3.4044,-3.4044,-3.4043,0,-3.4021,-3.4019,-3.4033,-3.4041,-3.4053,-3.4033,-3.4038,-3.4048,-3.4065,-3.4068,-3.4078,-3.4096,-3.4109,-3.4102,-3.4113,-3.4126,-3.4117,-3.413,-3.4128,-3.4127,-3.4061,-3.4053,-3.4137,-3.4137,-3.4137,-3.4137,-3.4137,-3.4137,-3.4067,-3.4096,-3.4089,-3.4118,-3.4116,-3.4135,-3.4139,-3.4143,-3.4145,-3.4166,-3.4177,-3.4172,-3.4171,-3.4181,-3.4192,-3.419,-3.4194,-3.421,-3.4204,-3.4142,-3.4132,-3.4124,-3.4116,-3.4212,-3.4212,-3.4269,-3.427,-3.427]}]]